[[{"header":{"parameterUnit":"m.s-1","parameterCategory":1,"la1":30.2991,"la2":30.254,"lo1":-89.0895,"lo2":-89.0444,"dy":0.0017,"dx":0.0017,"nx":28,"ny":28,"refTime":"2023-10-16T21:00:00:Z","depth":0,"parameterNumber":2,"parameterNumberName":"U-component_of_WINDS"},"data":[0,0,0,0,0,0,0,0,0,0,0,0,0,0,0,0,0,0,0,0,0,0,0,0,0,0,0,0,0,0,0,0,0,0,0,0,0,0,0,0,0,0,0,0,0,0,0,0,0,0,0,0,0,0,0,0,0,0,1.5943,1.5943,0,1.5956,1.5957,1.5957,1.5958,1.5957,1.5957,1.5957,1.597,1.5971,1.5971,0,0,0,0,0,0,0,0,0,0,0,0,0,1.5918,1.5918,1.5943,1.5943,1.5943,1.5956,1.5957,1.5957,1.5958,1.5957,1.5957,1.5957,1.597,1.5971,1.5971,0,0,0,0,0,0,0,0,0,0,0,0,0,1.593,1.5918,1.5943,1.5945,1.5945,1.5956,1.5957,1.5957,1.5958,1.5957,1.5957,1.5957,1.597,1.5971,1.5972,1.5981,0,0,1.5974,1.5974,0,0,0,0,0,0,0,0,1.5929,1.5931,1.5945,1.5945,1.5945,1.5955,1.5953,1.5965,1.5958,1.5953,1.5957,1.5957,1.5965,1.5967,1.597,1.5981,1.5982,1.5974,1.5974,1.5975,1.5975,0,0,0,0,0,0,0,1.5928,1.593,1.5948,1.5945,1.5945,1.5946,1.5947,1.5955,1.596,1.5953,1.5953,1.5955,1.5966,1.5969,1.597,1.5982,1.5974,1.5975,1.5975,1.5975,1.6003,1.6004,0,0,0,0,0,0,1.5927,1.5929,1.5948,1.5949,1.5937,1.5946,1.5948,1.5952,1.596,1.5961,1.5955,1.5955,1.5968,1.5969,1.597,1.5982,1.5975,1.5975,1.5976,1.6003,1.6003,1.6004,0,0,0,0,0,0,1.5926,1.5929,1.5947,1.5939,1.5941,1.5947,1.5952,1.5953,1.5956,1.5962,1.5963,1.5958,1.5968,1.5969,1.5978,1.5983,1.5976,1.5976,1.6003,1.6003,1.6004,1.6006,0,0,0,0,0,0,1.5926,1.5928,1.5932,1.5939,1.5942,1.5955,1.5952,1.5953,1.5957,1.5957,1.5964,1.5965,1.5968,1.5977,1.5979,1.5984,1.5977,1.6002,1.6003,1.6003,1.6005,1.6006,1.6007,0,0,0,0,0,1.5925,1.5931,1.5932,1.5934,1.5946,1.5955,1.5957,1.5959,1.5957,1.5961,1.5965,1.5965,1.5982,1.5978,1.598,1.5985,1.6002,1.6003,1.6003,1.6005,1.6006,1.6007,0,0,0,0,0,0,1.5924,1.5932,1.5933,1.5942,1.5948,1.5955,1.596,1.596,1.5967,1.5966,1.597,1.5971,1.598,1.5984,1.5979,1.5995,1.5992,1.5993,1.5992,1.5993,1.5994,1.5993,1.5978,0,0,0,0,0,1.5925,1.5931,1.5938,1.5946,1.5949,1.5954,1.5958,1.596,1.5966,1.5968,1.5973,1.5978,1.5985,1.599,1.5996,1.6006,1.6008,1.601,1.6011,1.6012,1.6013,1.6019,1.602,1.6006,1.6006,1.6006,0,0,1.5926,1.5932,1.5936,1.5946,1.595,1.5957,1.5956,1.5963,1.5968,1.5969,1.5978,1.5982,1.5989,1.5998,1.6003,1.6001,1.6017,1.6013,1.6013,1.6014,1.602,1.6021,1.6022,1.6006,1.6006,1.6006,0,0,1.5933,1.5938,1.5945,1.595,1.5958,1.5961,1.5963,1.597,1.5973,1.5982,1.5983,1.599,1.6001,1.6006,1.601,1.6021,1.6021,1.6023,1.6027,1.6033,1.6034,1.6035,1.6039,1.6041,1.6024,1.6024,1.6024,0,1.5934,1.5945,1.5948,1.5956,1.5961,1.5963,1.597,1.5975,1.5984,1.5987,1.5986,1.6001,1.6005,1.6017,1.602,1.6023,1.6025,1.6022,1.6034,1.6035,1.6036,1.604,1.6041,1.6024,1.6024,1.6024,1.6024,0,1.5946,1.5953,1.5958,1.5968,1.5973,1.598,1.5985,1.599,1.5992,1.5996,1.6006,1.6012,1.602,1.6023,1.6025,1.6035,1.6034,1.6033,1.603,1.6037,1.6041,1.6043,1.6024,1.6024,1.6024,1.6024,0,0,1.5951,1.5964,1.5966,1.597,1.5979,1.5985,1.5993,1.6001,1.6006,1.6012,1.6019,1.603,1.6029,1.6034,1.6037,1.6042,1.605,1.6041,1.6041,1.6042,1.6063,1.6063,1.6065,1.6051,1.6051,1.6051,1.6062,0,1.5959,1.5973,1.5978,1.5989,1.5997,1.5999,1.6006,1.6013,1.6017,1.6024,1.6029,1.6036,1.6035,1.6038,1.6043,1.6048,1.6055,1.6048,1.6057,1.6058,1.6055,1.6067,1.6067,1.6077,1.6064,1.6064,1.6064,0,1.597,1.5977,1.599,1.5999,1.6003,1.6009,1.6017,1.6024,1.6032,1.6034,1.604,1.6043,1.6051,1.6048,1.6061,1.6056,1.606,1.6064,1.6064,1.6065,1.6061,1.6068,1.608,1.6081,1.6066,1.6066,1.6066,0,1.5973,1.5986,1.5996,1.6,1.601,1.6015,1.602,1.6027,1.6032,1.604,1.6044,1.6052,1.6057,1.6063,1.6068,1.6065,1.608,1.6078,1.6083,1.6083,1.6085,1.6085,1.6098,1.6089,1.6089,1.6089,1.6089,0,1.5981,1.5989,1.5997,1.6003,1.6012,1.6017,1.6026,1.6031,1.6038,1.6045,1.6048,1.6055,1.6061,1.6068,1.6072,1.6082,1.6084,1.6087,1.6088,1.6086,1.6086,1.6089,1.6088,1.6089,1.6089,1.6089,1.6089,0,1.5985,1.5991,1.6002,1.6012,1.6015,1.6021,1.6029,1.6036,1.604,1.6049,1.6052,1.6059,1.6068,1.6074,1.6085,1.6088,1.6099,1.61,1.6096,1.6097,1.6102,1.6101,1.6117,1.612,1.6109,1.6109,1.6109,0,1.599,1.5996,1.6007,1.6012,1.6017,1.6025,1.6031,1.6037,1.6042,1.6053,1.6057,1.6067,1.6075,1.6089,1.6096,1.6105,1.6106,1.6111,1.6107,1.6106,1.6106,1.6105,1.6106,1.6111,1.6111,1.6111,1.6111,0,1.5998,1.6001,1.6009,1.6018,1.6025,1.6033,1.604,1.6044,1.6052,1.6058,1.6068,1.6074,1.6086,1.6095,1.6105,1.611,1.6112,1.6113,1.6114,1.6113,1.6111,1.6112,1.6098,1.6112,1.6112,1.6112,1.6112,1.6112,1.6003,1.6008,1.6017,1.6026,1.6033,1.604,1.6047,1.6053,1.6061,1.6072,1.6075,1.6085,1.6094,1.6107,1.6113,1.6121,1.612,1.6122,1.6123,1.6123,1.6124,1.611,1.6123,1.6123,1.6123,1.6123,1.6123,0,1.6011,1.6017,1.6025,1.6036,1.6043,1.6045,1.6054,1.606,1.6069,1.6077,1.6085,1.6097,1.6106,1.6114,1.6124,1.6129,1.613,1.6132,1.6131,1.6132,1.6124,1.6121,1.6131,1.6131,1.6131,1.6131,1.6131,1.6131,1.6016,1.6026,1.603,1.6044,1.605,1.6061,1.6066,1.6073,1.6079,1.6092,1.61,1.6105,1.6113,1.6124,1.6133,1.6135,1.6139,1.614,1.6142,1.6134,1.6133,1.6132,1.613,1.6141,1.6141,1.615,1.615,1.615]},{"header":{"parameterUnit":"m.s-1","parameterCategory":1,"la1":30.2991,"la2":30.254,"lo1":-89.0895,"lo2":-89.0444,"dy":0.0017,"dx":0.0017,"nx":28,"ny":28,"refTime":"2023-10-16T21:00:00:Z","depth":0,"parameterNumber":3,"parameterNumberName":"V-component_of_WINDS"},"data":[0,0,0,0,0,0,0,0,0,0,0,0,0,0,0,0,0,0,0,0,0,0,0,0,0,0,0,0,0,0,0,0,0,0,0,0,0,0,0,0,0,0,0,0,0,0,0,0,0,0,0,0,0,0,0,0,0,0,-6.266,-6.266,0,-6.2656,-6.2656,-6.2656,-6.2584,-6.2582,-6.2581,-6.2579,-6.2573,-6.2575,-6.2576,0,0,0,0,0,0,0,0,0,0,0,0,0,-6.2607,-6.2608,-6.266,-6.266,-6.266,-6.2656,-6.2656,-6.2656,-6.2585,-6.2582,-6.258,-6.2578,-6.2573,-6.2575,-6.2577,0,0,0,0,0,0,0,0,0,0,0,0,0,-6.2619,-6.2608,-6.266,-6.2624,-6.2621,-6.2656,-6.2656,-6.2655,-6.2585,-6.2582,-6.258,-6.2577,-6.2572,-6.2575,-6.2577,-6.2646,0,0,-6.2584,-6.2585,0,0,0,0,0,0,0,0,-6.2618,-6.2621,-6.2629,-6.2626,-6.2623,-6.2618,-6.2635,-6.2652,-6.2586,-6.2598,-6.2579,-6.2576,-6.259,-6.2591,-6.2596,-6.2645,-6.2645,-6.2584,-6.2586,-6.2587,-6.2587,0,0,0,0,0,0,0,-6.2618,-6.2621,-6.2658,-6.2629,-6.2625,-6.2608,-6.2607,-6.2638,-6.261,-6.2597,-6.2592,-6.2593,-6.2588,-6.2594,-6.2595,-6.2645,-6.2584,-6.2586,-6.2588,-6.2589,-6.2753,-6.2756,0,0,0,0,0,0,-6.2622,-6.262,-6.2658,-6.2658,-6.2614,-6.2611,-6.261,-6.2622,-6.2609,-6.2605,-6.2595,-6.2589,-6.2591,-6.2593,-6.2595,-6.2676,-6.2587,-6.2589,-6.259,-6.275,-6.2754,-6.2757,0,0,0,0,0,0,-6.2621,-6.2626,-6.2658,-6.2638,-6.2641,-6.2615,-6.2629,-6.2623,-6.2629,-6.2607,-6.2602,-6.2606,-6.2589,-6.2592,-6.2634,-6.2675,-6.259,-6.2592,-6.2747,-6.2752,-6.2756,-6.2839,0,0,0,0,0,0,-6.262,-6.2626,-6.2651,-6.2639,-6.2642,-6.2698,-6.2632,-6.2625,-6.2634,-6.2626,-6.2617,-6.2612,-6.2587,-6.2631,-6.2637,-6.2677,-6.2594,-6.2743,-6.2749,-6.2754,-6.2832,-6.2845,-6.2857,0,0,0,0,0,-6.2618,-6.2674,-6.2653,-6.2658,-6.2674,-6.27,-6.2702,-6.2672,-6.2637,-6.2663,-6.2649,-6.2613,-6.267,-6.2636,-6.2642,-6.2683,-6.274,-6.2747,-6.2754,-6.2827,-6.2843,-6.2856,0,0,0,0,0,0,-6.269,-6.2672,-6.2648,-6.2702,-6.2704,-6.2688,-6.2719,-6.269,-6.2701,-6.2693,-6.2656,-6.2655,-6.2703,-6.2697,-6.266,-6.275,-6.2699,-6.2707,-6.2752,-6.2768,-6.278,-6.278,-6.2596,0,0,0,0,0,-6.2713,-6.2737,-6.2719,-6.2768,-6.277,-6.2745,-6.2755,-6.2733,-6.2733,-6.2733,-6.2722,-6.2723,-6.2741,-6.2754,-6.2769,-6.2831,-6.2829,-6.2862,-6.2875,-6.2885,-6.2892,-6.2927,-6.2942,-6.2779,-6.2779,-6.2779,0,0,-6.2759,-6.2752,-6.2769,-6.2782,-6.2781,-6.2806,-6.2746,-6.2775,-6.2793,-6.2737,-6.2777,-6.277,-6.2768,-6.2821,-6.2844,-6.2818,-6.2937,-6.2894,-6.2902,-6.2904,-6.2935,-6.295,-6.2964,-6.2784,-6.2783,-6.2782,0,0,-6.2857,-6.2853,-6.2895,-6.2895,-6.2894,-6.2878,-6.2888,-6.2878,-6.2871,-6.2911,-6.287,-6.2892,-6.2924,-6.2925,-6.293,-6.3032,-6.2999,-6.3038,-6.3102,-6.3136,-6.3149,-6.316,-6.3197,-6.3211,-6.3046,-6.3046,-6.3046,0,-6.2914,-6.2951,-6.2919,-6.2952,-6.296,-6.2912,-6.2954,-6.2956,-6.296,-6.2967,-6.2937,-6.2978,-6.2974,-6.3028,-6.3053,-6.3058,-6.3069,-6.3039,-6.3149,-6.316,-6.317,-6.3206,-6.322,-6.3051,-6.305,-6.3049,-6.3049,0,-6.3022,-6.3049,-6.3083,-6.309,-6.3101,-6.3139,-6.3114,-6.3129,-6.3107,-6.3094,-6.3136,-6.313,-6.3144,-6.3155,-6.3132,-6.3206,-6.319,-6.3156,-6.3103,-6.3191,-6.3224,-6.3237,-6.3057,-6.3056,-6.3054,-6.3053,0,0,-6.3163,-6.3155,-6.3168,-6.3171,-6.3168,-6.3188,-6.3224,-6.3239,-6.3254,-6.3259,-6.3289,-6.3319,-6.3288,-6.3294,-6.3271,-6.3301,-6.3384,-6.3263,-6.3262,-6.3286,-6.3467,-6.3493,-6.3509,-6.3362,-6.3365,-6.3367,-6.3467,0,-6.3258,-6.3319,-6.3294,-6.3358,-6.3383,-6.3339,-6.337,-6.3372,-6.3362,-6.3382,-6.337,-6.3392,-6.3349,-6.3352,-6.338,-6.3368,-6.3419,-6.336,-6.339,-6.3391,-6.3392,-6.3526,-6.3553,-6.3648,-6.3479,-6.3482,-6.3483,0,-6.3376,-6.3389,-6.3456,-6.3451,-6.346,-6.3489,-6.3502,-6.3522,-6.3524,-6.3514,-6.3523,-6.3494,-6.353,-6.3478,-6.3527,-6.3488,-6.3499,-6.3495,-6.3498,-6.35,-6.3443,-6.3532,-6.3677,-6.3692,-6.3503,-6.3501,-6.35,0,-6.3474,-6.3507,-6.3552,-6.3556,-6.3551,-6.3573,-6.3572,-6.3571,-6.3583,-6.3595,-6.3602,-6.3617,-6.3626,-6.3639,-6.3615,-6.358,-6.3669,-6.3614,-6.3662,-6.3663,-6.3682,-6.3681,-6.3833,-6.3689,-6.3689,-6.3688,-6.3688,0,-6.3583,-6.3626,-6.3596,-6.3624,-6.3672,-6.3642,-6.369,-6.3684,-6.3685,-6.3711,-6.3673,-6.3698,-6.3666,-6.3688,-6.367,-6.3715,-6.3719,-6.3712,-6.3707,-6.3716,-6.3717,-6.3722,-6.3715,-6.3692,-6.3691,-6.3691,-6.369,0,-6.3699,-6.3681,-6.3728,-6.372,-6.372,-6.3755,-6.3749,-6.3775,-6.3762,-6.3796,-6.3802,-6.3783,-6.3808,-6.3786,-6.3809,-6.3797,-6.3857,-6.3842,-6.3857,-6.3853,-6.3902,-6.3898,-6.4062,-6.4083,-6.3926,-6.3927,-6.3928,0,-6.377,-6.3803,-6.38,-6.3816,-6.3817,-6.3842,-6.3855,-6.3828,-6.3842,-6.3849,-6.3874,-6.3896,-6.3912,-6.3954,-6.3942,-6.396,-6.3945,-6.4002,-6.3948,-6.3956,-6.3947,-6.3946,-6.395,-6.4013,-6.4015,-6.4016,-6.4017,0,-6.3898,-6.3889,-6.3908,-6.3926,-6.3943,-6.3955,-6.3964,-6.3979,-6.3952,-6.397,-6.3996,-6.4008,-6.4034,-6.4056,-6.4071,-6.4069,-6.404,-6.4035,-6.4047,-6.4056,-6.4064,-6.4062,-6.3888,-6.4031,-6.403,-6.4029,-6.4028,-6.4027,-6.3995,-6.4023,-6.4026,-6.405,-6.4055,-6.4065,-6.409,-6.4082,-6.4103,-6.4122,-6.4105,-6.4136,-6.4139,-6.4156,-6.4159,-6.4183,-6.416,-6.4177,-6.4181,-6.4186,-6.4194,-6.406,-6.4186,-6.4185,-6.4185,-6.4185,-6.4184,0,-6.4122,-6.4123,-6.4145,-6.4161,-6.418,-6.4152,-6.4161,-6.4179,-6.4208,-6.4214,-6.4231,-6.4262,-6.4284,-6.4275,-6.4295,-6.4316,-6.4303,-6.4322,-6.4321,-6.4321,-6.4213,-6.4201,-6.4333,-6.4333,-6.4333,-6.4333,-6.4333,-6.4333,-6.419,-6.4237,-6.4228,-6.4277,-6.4277,-6.4308,-6.4317,-6.4326,-6.4331,-6.4368,-6.4387,-6.4381,-6.4381,-6.4401,-6.4421,-6.4418,-6.4427,-6.4452,-6.4444,-6.4343,-6.4328,-6.4314,-6.4303,-6.4454,-6.4454,-6.4549,-6.455,-6.4551]}]]